{"data":{"norad_id":57972,"epoch":"2026-09-20T11:28:42.872736Z","epoch_age_seconds":139680,"freshness":"FRESH","line1":"1 57972U 23151J   26263.47827399  .00011181  00000+0  41514-3 0  9999","line2":"2 57972  43.0059 316.2020 0001506 268.5705  91.4974 15.27584735165555","mean_motion":15.27584735,"eccentricity":0.0001506,"inclination_deg":43.0059,"raan_deg":316.202,"arg_perigee_deg":268.5705,"mean_anomaly_deg":91.4974,"bstar":0.00041514,"rev_number":16555,"period_min":94.266456518368,"perigee_km":482.00162529205,"apogee_km":484.06821027369,"semimajor_km":6861.1719177829,"source":"CELESTRAK","updated_at":"2026-09-21T09:00:33.749998Z"}}